Location: Cardiff
(53.7833°N, 113.6000°W)
Time: 21:16:44
(UTC+00:00)

Oscar 19 - Pass Details

Date: 10 December 2023
Orbit: 771 x 789 km, 98.9° (Epoch: 04 March)

Event Time Altitude Azimuth Distance (km) Brightness Sun altitude
Rises 14:15:20 0° 9° (N) 3,277 13.7 -11.6°
Reaches altitude 10° 14:18:07 10° 355° (N) 2,348 12.8 -11.2°
Maximum altitude 14:21:57 21° 307° (NW) 1,688 11.8 -10.7°
Drops below altitude 10° 14:25:46 10° 259° (W) 2,346 12.6 -10.2°
Sets 14:28:34 0° 244° (WSW) 3,274 13.5 -9.8°
